Miscellaneous Local Product
Issued by NWS Hastings, NE

Home | Current Version | Previous Version | Graphics & Text | Print | Product List | Glossary On
Versions: 1 2 3 4 5 6 7 8 9 10 11 12 13 14 15 16 17 18 19 20 21 22 23 24 25 26 27 28 29 30 31 32 33 34 35 36 37 38 39 40 41 42 43 44 45 46 47 48 49 50
000
AXUS43 KGID 091502
MISGRI

GID CWA HOURLY WEATHER ROUNDUP
NATIONAL WEATHER SERVICE HASTINGS NE
1000 AM CDT WED JUL 09 2014

NOTE: "FAIR" INDICATES FEW OR NO CLOUDS BELOW 12,000 FEET WITH NO
SIGNIFICANT WEATHER AND/OR OBSTRUCTIONS TO VISIBILITY.

...SOUTH CENTRAL NEBRASKA...

CITY           SKY/WX    TMP DP  RH WIND       PRES   REMARKS
GRAND ISLAND   MOSUNNY   74  58  57 SE10      30.11S
HASTINGS       PTSUNNY   73  54  51 MISG      30.11S
KEARNEY        SUNNY     72  57  60 SE6       30.12S
ORD            MOSUNNY   72  56  57 SE6       30.09F
YORK           SUNNY     73  57  56 S8        30.11S
AURORA         MOSUNNY   74  62  65 SE6       30.11S
LEXINGTON      SUNNY     77  58  51 S14       30.10F
HOLDREGE       SUNNY     76  56  50 SE13      30.10F
HEBRON         SUNNY     77  60  56 SE6       30.11S

...NEBRASKA PANHANDLE...

CITY           SKY/WX    TMP DP  RH WIND       PRES   REMARKS
CHADRON        MOSUNNY   72  54  53 VRB6      30.04S
ALLIANCE       PTSUNNY   67  55  65 SE13      30.07F
SCOTTSBLUFF    LGT RAIN  61  60  97 E9        30.03R
SIDNEY         LGT RAIN  66  57  72 N15G26    30.18R

...WESTERN AND NORTH CENTRAL NEBRASKA...

CITY           SKY/WX    TMP DP  RH WIND       PRES   REMARKS
VALENTINE      CLOUDY    67  60  78 E5        30.09S
AINSWORTH      CLOUDY    70  55  59 S7        30.10S
ONEILL         PTSUNNY   74  52  46 S8        30.10S
BROKEN BOW     PTSUNNY   75  58  55 SE10      30.11F
IMPERIAL       SUNNY     76  55  48 S15       30.08S
NORTH PLATTE   SUNNY     73  58  59 SE10      30.10R
MCCOOK         SUNNY     76  58  53 S12       30.08F

...EASTERN NEBRASKA...

CITY           SKY/WX    TMP DP  RH WIND       PRES   REMARKS
NORFOLK        SUNNY     74  57  55 S6        30.08F
SO SIOUX CITY  SUNNY     70  61  73 W5        30.08R
TEKAMAH        SUNNY     72  60  66 SW6       30.08R
ALBION         SUNNY     73  56  56 S6        30.10F
OMAHA EPPLEY   SUNNY     72  59  63 S3        30.08R
OFFUTT AFB     SUNNY     73  65  77 S5        30.09R
MILLARD        SUNNY     74  58  59 S5        30.08S
LINCOLN        MOSUNNY   74  60  61 SE5       30.10S
NEBRASKA CITY  SUNNY     72  62  71 CALM      30.10R
BEATRICE       MOSUNNY   72  59  64 CALM      30.11R
FALLS CITY     SUNNY     73  62  68 CALM      30.09R

...NORTHERN KANSAS...

CITY           SKY/WX    TMP DP  RH WIND       PRES   REMARKS
GOODLAND       SUNNY     74  56  53 S16       30.10F
HILL CITY      PTSUNNY   77  58  51 SE9       30.10S
NORTON         MOSUNNY   79  52  38 SE13      30.09F
PHILLIPSBURG   MOSUNNY   79  54  41 SE13G20   30.10S
SMITH CENTER   SUNNY     79  57  47 S13       30.11S
BELOIT         SUNNY     77  61  57 S5        30.10S
HAYS           SUNNY     79  57  47 S12       30.11S
RUSSELL        SUNNY     79  59  50 SE13      30.09F
CONCORDIA      SUNNY     75  63  66 VRB3      30.11S
SALINA         SUNNY     80  61  52 S9        30.10S
TOPEKA         SUNNY     77  64  64 CALM      30.09S



USA.gov is the U.S. government's official web portal to all federal, state and local government web resources and services.